Location: La Bastide
(43.1661°N, 1.2755°E)
Time: 17:44:57
(UTC+00:00)

ISS - Pass Details

Date: 17 February 2026
Orbit: 416 x 427 km, 51.6° (Epoch: 6 March)

Event Time Altitude Azimuth Distance (km) Brightness Sun altitude
Exits shadow 06:12:10 10° 283° (WNW) 1,495 -1.7 -7.6°
Reaches altitude 10° 06:12:10 10° 283° (WNW) 1,493 -1.7 -7.6°
Maximum altitude 06:15:05 27° 343° (NNW) 847 -2.4 -7.0°
Drops below altitude 10° 06:17:59 10° 43° (NE) 1,494 -0.5 -6.5°
Sets 06:20:18 0° 56° (NE) 2,359 0.8 -6.1°
